| time (UTC) | temp C | wind direction | speed KPH | gust KPH | rain 1hr cm | rain 24hr cm | rain mn cm | humidity % | barometer mb |
| 20260507144557 | 17 | 78 | 0.0 | 3.2 | 0.00 | 0.89 | 0.30 | 66 | 1016.9 |
| 20260507143056 | 18 | 75 | 0.0 | 3.2 | 0.00 | 0.89 | 0.30 | 65 | 1016.8 |
| 20260507141555 | 18 | 86 | 1.6 | 4.8 | 0.00 | 0.89 | 0.30 | 65 | 1016.9 |
| 20260507140054 | 18 | 229 | 0.0 | 1.6 | 0.00 | 0.89 | 0.30 | 69 | 1016.9 |
| 20260507134555 | 18 | 238 | 0.0 | 1.6 | 0.00 | 0.99 | 0.30 | 70 | 1016.9 |
| 20260507133055 | 16 | 95 | 0.0 | 1.6 | 0.00 | 0.99 | 0.30 | 74 | 1017.2 |
| 20260507131600 | 15 | 90 | 0.0 | 6.4 | 0.00 | 0.99 | 0.30 | 76 | 1017.2 |
| 20260507130105 | 15 | 86 | 0.0 | 3.2 | 0.00 | 0.99 | 0.30 | 76 | 1017.3 |
| 20260507124553 | 15 | 87 | 0.0 | 4.8 | 0.00 | 1.04 | 0.30 | 75 | 1017.3 |
| 20260507123050 | 16 | 72 | 0.0 | 3.2 | 0.00 | 1.04 | 0.30 | 74 | 1017.2 |
| 20260507121559 | 17 | 219 | 0.0 | 8.0 | 0.00 | 1.04 | 0.30 | 66 | 1017.1 |
| 20260507120048 | 17 | 246 | 0.0 | 0.0 | 0.00 | 1.04 | 0.30 | 61 | 1017.1 |
| 20260507114600 | 17 | 264 | 0.0 | 4.8 | 0.00 | 1.27 | 0.30 | 62 | 1017.1 |
| 20260507113045 | 16 | 243 | 0.0 | 4.8 | 0.00 | 1.27 | 0.30 | 64 | 1017.2 |
| 20260507111545 | 16 | 247 | 3.2 | 9.7 | 0.00 | 1.27 | 0.30 | 63 | 1017.2 |
| 20260507110043 | 17 | 245 | 4.8 | 11.3 | 0.00 | 1.27 | 0.30 | 63 | 1017.3 |
| 20260507104540 | 16 | 239 | 0.0 | 6.4 | 0.00 | 1.30 | 0.30 | 68 | 1017.5 |
| 20260507103043 | 16 | 250 | 0.0 | 4.8 | 0.00 | 1.30 | 0.30 | 68 | 1017.5 |
| 20260507101537 | 15 | 255 | 1.6 | 6.4 | 0.00 | 1.30 | 0.30 | 70 | 1017.6 |
| 20260507100039 | 15 | 237 | 1.6 | 6.4 | 0.00 | 1.30 | 0.30 | 71 | 1017.7 |
| 20260507094537 | 14 | 269 | 3.2 | 11.3 | 0.00 | 1.30 | 0.30 | 72 | 1017.6 |
| 20260507093029 | 13 | 254 | 3.2 | 11.3 | 0.00 | 1.30 | 0.30 | 77 | 1017.7 |
| 20260507091525 | 13 | 259 | 0.0 | 6.4 | 0.00 | 1.30 | 0.30 | 82 | 1017.7 |
| 20260507090023 | 12 | 227 | 1.6 | 6.4 | 0.00 | 1.30 | 0.30 | 82 | 1017.4 |
| 20260507084521 | 12 | 216 | 1.6 | 6.4 | 0.00 | 1.30 | 0.30 | 85 | 1017.4 |
| 20260507083019 | 12 | 238 | 1.6 | 6.4 | 0.00 | 1.30 | 0.30 | 86 | 1017.4 |
| 20260507081533 | 11 | 231 | 3.2 | 9.7 | 0.00 | 1.30 | 0.30 | 87 | 1017.4 |
| 20260507080013 | 11 | 240 | 0.0 | 4.8 | 0.00 | 1.30 | 0.30 | 90 | 1017.3 |
| 20260507074522 | 11 | 240 | 1.6 | 8.0 | 0.00 | 1.30 | 0.30 | 90 | 1017.3 |
| 20260507073007 | 11 | 248 | 1.6 | 8.0 | 0.00 | 1.30 | 0.30 | 90 | 1017.2 |
| 20260507071504 | 10 | 239 | 1.6 | 6.4 | 0.00 | 1.30 | 0.30 | 90 | 1017.1 |
| 20260507070004 | 10 | 240 | 3.2 | 6.4 | 0.00 | 1.30 | 0.30 | 91 | 1017.0 |
| 20260507064600 | 10 | 253 | 3.2 | 8.0 | 0.00 | 1.30 | 0.30 | 91 | 1016.8 |
| 20260507063058 | 10 | 252 | 0.0 | 6.4 | 0.00 | 1.30 | 0.30 | 92 | 1016.9 |
| 20260507061554 | 10 | 251 | 1.6 | 4.8 | 0.03 | 1.30 | 0.30 | 92 | 1016.7 |
| 20260507060053 | 10 | 246 | 0.0 | 4.8 | 0.03 | 1.30 | 0.30 | 92 | 1016.6 |
| 20260507054628 | 10 | 250 | 0.0 | 6.4 | 0.03 | 1.30 | 0.30 | 92 | 1016.5 |
| 20260507053052 | 10 | 248 | 1.6 | 6.4 | 0.03 | 1.30 | 0.30 | 93 | 1016.3 |
| 20260507051547 | 10 | 240 | 1.6 | 8.0 | 0.00 | 1.27 | 0.28 | 92 | 1016.1 |
| 20260507050053 | 10 | 248 | 1.6 | 6.4 | 0.00 | 1.27 | 0.28 | 92 | 1016.1 |
| 20260507044549 | 10 | 252 | 1.6 | 8.0 | 0.00 | 1.27 | 0.28 | 92 | 1015.6 |
| 20260507043045 | 10 | 253 | 1.6 | 6.4 | 0.00 | 1.27 | 0.28 | 92 | 1015.6 |
| 20260507041545 | 10 | 236 | 1.6 | 8.0 | 0.00 | 1.27 | 0.28 | 93 | 1015.5 |
| 20260507040044 | 9 | 241 | 3.2 | 6.4 | 0.03 | 1.27 | 0.28 | 93 | 1015.4 |
| 20260507034542 | 9 | 259 | 1.6 | 8.0 | 0.03 | 1.27 | 0.28 | 93 | 1015.4 |
| 20260507033044 | 9 | 253 | 1.6 | 8.0 | 0.03 | 1.27 | 0.28 | 93 | 1015.3 |
| 20260507031546 | 9 | 242 | 3.2 | 8.0 | 0.03 | 1.27 | 0.28 | 93 | 1015.2 |
| 20260507030048 | 9 | 259 | 1.6 | 6.4 | 0.00 | 1.27 | 0.25 | 93 | 1015.2 |
| 20260507024541 | 9 | 247 | 1.6 | 9.7 | 0.00 | 1.27 | 0.25 | 93 | 1015.1 |
| 20260507023035 | 9 | 237 | 6.4 | 12.9 | 0.03 | 1.27 | 0.25 | 94 | 1015.2 |
| 20260507021535 | 9 | 289 | 4.8 | 11.3 | 0.05 | 1.27 | 0.25 | 94 | 1015.1 |
| 20260507020032 | 9 | 247 | 3.2 | 9.7 | 0.08 | 1.27 | 0.25 | 94 | 1014.9 |
| 20260507014542 | 9 | 236 | 4.8 | 12.9 | 0.13 | 1.27 | 0.25 | 94 | 1014.9 |
| 20260507013028 | 9 | 250 | 4.8 | 12.9 | 0.15 | 1.24 | 0.23 | 93 | 1014.7 |
| 20260507011528 | 9 | 263 | 1.6 | 8.0 | 0.13 | 1.19 | 0.20 | 93 | 1014.7 |
| 20260507010027 | 9 | 243 | 3.2 | 6.4 | 0.13 | 1.17 | 0.18 | 93 | 1014.7 |
| 20260507004524 | 9 | 257 | 1.6 | 6.4 | 0.05 | 1.12 | 0.13 | 92 | 1014.7 |
| 20260507003022 | 9 | 240 | 1.6 | 8.0 | 0.05 | 1.09 | 0.10 | 91 | 1014.6 |
| 20260507001526 | 10 | 282 | 1.6 | 4.8 | 0.05 | 1.09 | 0.08 | 90 | 1014.6 |
| 20260507000031 | 10 | 247 | 1.6 | 6.4 | 0.03 | 1.07 | 0.05 | 90 | 1014.6 |
| 20260506234517 | 10 | 240 | 4.8 | 9.7 | 0.03 | 1.07 | 0.05 | 89 | 1014.6 |
| 20260506233017 | 10 | 238 | 3.2 | 11.3 | 0.03 | 1.07 | 0.05 | 89 | 1014.7 |
| 20260506231514 | 10 | 255 | 1.6 | 8.0 | 0.03 | 1.04 | 0.05 | 89 | 1014.6 |
| 20260506230013 | 10 | 263 | 1.6 | 9.7 | 0.05 | 1.04 | 0.05 | 89 | 1014.6 |
| 20260506224512 | 10 | 269 | 0.0 | 6.4 | 0.05 | 1.04 | 0.05 | 89 | 1014.6 |
| 20260506223010 | 10 | 249 | 1.6 | 8.0 | 0.05 | 1.04 | 0.05 | 89 | 1014.5 |
| 20260506221509 | 10 | 249 | 0.0 | 6.4 | 0.03 | 1.02 | 0.03 | 89 | 1014.5 |
| 20260506220016 | 10 | 242 | 1.6 | 4.8 | 0.00 | 0.99 | 0.00 | 89 | 1014.4 |
| 20260506214506 | 10 | 249 | 1.6 | 8.0 | 0.00 | 0.99 | 0.99 | 89 | 1014.4 |
| 20260506213005 | 10 | 247 | 3.2 | 9.7 | 0.00 | 0.99 | 0.99 | 88 | 1014.3 |
| 20260506211508 | 10 | 261 | 1.6 | 6.4 | 0.00 | 0.99 | 0.99 | 88 | 1014.2 |
| 20260506210007 | 10 | 259 | 1.6 | 8.0 | 0.00 | 0.99 | 0.99 | 88 | 1014.0 |
| 20260506204501 | 10 | 253 | 1.6 | 8.0 | 0.03 | 0.99 | 0.99 | 89 | 1014.0 |
| 20260506203100 | 10 | 224 | 1.6 | 6.4 | 0.05 | 0.99 | 0.99 | 91 | 1013.8 |
| 20260506201557 | 10 | 253 | 4.8 | 9.7 | 0.05 | 0.99 | 0.99 | 91 | 1013.7 |
| 20260506200056 | 10 | 236 | 1.6 | 8.0 | 0.05 | 0.99 | 0.99 | 91 | 1013.5 |
| 20260506194614 | 10 | 239 | 3.2 | 8.0 | 0.05 | 0.99 | 0.99 | 90 | 1013.4 |
| 20260506193103 | 10 | 245 | 0.0 | 3.2 | 0.05 | 0.97 | 0.97 | 91 | 1013.4 |
| 20260506191551 | 10 | 254 | 0.0 | 1.6 | 0.08 | 0.97 | 0.97 | 91 | 1013.0 |
| 20260506190050 | 10 | 250 | 0.0 | 4.8 | 0.10 | 0.94 | 0.94 | 90 | 1012.7 |
| 20260506184548 | 10 | 225 | 0.0 | 3.2 | 0.13 | 0.91 | 0.91 | 91 | 1012.7 |
| 20260506183048 | 10 | 248 | 0.0 | 4.8 | 0.15 | 0.89 | 0.89 | 91 | 1012.7 |
| 20260506181546 | 10 | 257 | 0.0 | 3.2 | 0.15 | 0.89 | 0.89 | 91 | 1012.6 |
| 20260506180058 | 10 | 243 | 1.6 | 6.4 | 0.13 | 0.84 | 0.84 | 91 | 1012.5 |
| 20260506174545 | 10 | 241 | 3.2 | 8.0 | 0.13 | 1.17 | 0.79 | 91 | 1012.3 |
| 20260506173043 | 11 | 243 | 3.2 | 9.7 | 0.13 | 1.14 | 0.76 | 91 | 1012.1 |
| 20260506171541 | 11 | 244 | 3.2 | 8.0 | 0.15 | 1.12 | 0.71 | 91 | 1011.9 |
| 20260506170048 | 11 | 259 | 1.6 | 8.0 | 0.15 | 1.09 | 0.71 | 91 | 1011.8 |
| 20260506164538 | 11 | 239 | 4.8 | 6.4 | 0.15 | 1.07 | 0.69 | 90 | 1011.8 |
| 20260506163056 | 11 | 245 | 3.2 | 6.4 | 0.15 | 1.02 | 0.64 | 90 | 1011.7 |
| 20260506161536 | 11 | 244 | 1.6 | 8.0 | 0.10 | 0.97 | 0.58 | 90 | 1011.7 |
| 20260506160036 | 11 | 254 | 1.6 | 9.7 | 0.10 | 0.94 | 0.56 | 90 | 1011.6 |
| 20260506154541 | 11 | 266 | 0.0 | 6.4 | 0.05 | 0.89 | 0.51 | 91 | 1011.5 |
| 20260506153036 | 11 | 269 | 0.0 | 8.0 | 0.05 | 0.86 | 0.48 | 90 | 1011.4 |
| 20260506151532 | 11 | 84 | 0.0 | 6.4 | 0.05 | 0.84 | 0.46 | 90 | 1011.3 |
| 20260506150031 | 11 | 243 | 1.6 | 4.8 | 0.05 | 0.84 | 0.46 | 90 | 1011.2 |